Wind_Speed
20 18 17 16 15 14 13 12 12 12 12 11 11 11 11 11 11 10 10 9 9 9 8 8 8 8 7 7 7 7 7 7 7 7 7 7 7 7 7 8 8 8 9
21 20 19 18 17 16 15 14 14 14 14 13 13 12 12 12 12 12 12 11 11 11 10 10 10 9 9 9 9 8 8 8 8 8 9 8 8 9 9 9 10 10 10
22 21 20 20 19 19 17 17 16 16 16 15 15 14 14 13 13 13 13 13 13 12 12 12 11 11 11 11 11 10 10 10 10 10 10 10 10 10 10 11 11 12 12
23 22 22 21 20 20 20 19 18 18 18 17 17 16 16 15 15 14 14 14 14 14 13 13 13 13 13 13 12 12 12 11 11 11 12 12 12 12 12 12 12 13 14
24 23 23 22 22 22 22 21 20 20 20 20 19 18 18 17 17 17 16 16 16 15 15 15 15 15 14 14 14 14 14 14 13 13 13 13 13 13 14 14 14 15 15
26 25 24 24 23 22 22 22 22 21 21 21 21 20 20 20 20 19 19 18 18 18 17 17 17 16 16 16 15 15 16 16 15 15 15 15 15 15 15 15 16 16 17
27 27 26 25 24 24 23 23 23 22 22 22 22 21 21 21 21 21 21 20 20 20 20 19 19 18 18 18 17 17 16 17 17 17 17 17 17 16 17 17 18 18 18
28 28 28 27 26 25 24 24 23 23 23 23 23 22 22 22 22 22 22 22 22 22 22 22 21 21 20 20 19 19 19 19 18 18 18 18 18 19 19 19 20 20 20
30 29 29 28 27 26 25 25 25 25 25 24 24 24 24 24 24 24 24 24 24 24 24 24 23 23 22 22 22 22 21 21 20 20 20 20 20 21 21 21 22 22 21
30 30 29 29 28 27 27 27 27 26 26 26 26 26 25 25 25 25 25 25 25 26 26 26 25 25 24 24 24 23 23 23 22 22 22 22 22 23 23 23 23 23 23
31 31 30 30 30 30 29 29 29 29 29 29 29 28 28 28 28 27 27 27 27 27 27 27 27 27 27 26 26 25 25 25 24 24 24 24 24 24 24 25 25 24 24
30 31 31 30 30 30 30 31 31 31 31 31 31 30 30 29 29 29 28 28 28 29 29 29 29 29 29 29 28 28 27 26 26 26 26 26 26 26 27 26 25 25 25
32 31 31 31 31 31 30 32 32 32 32 32 32 32 32 31 31 30 30 30 30 30 31 31 31 32 32 31 30 30 29 29 28 28 28 28 27 27 27 26 26 26 26
32 32 31 31 31 32 31 32 32 33 33 33 33 33 33 33 33 32 32 32 32 32 32 32 33 33 34 33 32 32 32 31 31 30 29 29 28 28 27 26 26 26 27
32 32 32 32 32 32 32 32 33 33 34 34 34 34 34 34 34 34 34 33 33 33 32 33 33 33 34 35 34 33 33 33 32 32 31 30 30 29 28 27 27 27 28
32 33 33 33 33 33 33 33 33 33 34 34 34 35 35 35 35 35 35 35 34 34 33 33 34 34 34 35 35 34 34 33 33 33 32 32 31 30 29 29 29 29 30
31 32 32 33 32 32 33 34 34 33 34 35 35 35 35 35 35 35 35 35 35 35 34 34 34 35 35 35 35 35 35 34 34 34 33 33 33 33 31 31 32 32 33
31 31 31 32 32 31 32 34 35 35 34 35 36 36 35 35 34 34 34 35 35 36 36 36 36 36 37 37 37 37 36 36 36 35 35 35 35 34 34 34 33 33 33
31 31 31 31 31 32 32 32 34 35 35 35 35 35 35 36 36 35 35 35 36 36 37 37 37 37 37 37 37 37 37 37 36 36 36 36 36 36 36 36 36 36 35
30 31 31 32 32 33 33 33 33 34 35 35 35 35 35 36 36 37 37 37 37 37 37 37 37 37 38 38 38 38 38 38 38 38 37 37 37 38 38 37 37 38 39
29 31 32 33 33 34 34 34 34 34 34 34 36 36 36 36 36 36 36 37 37 37 37 37 37 37 37 38 38 39 39 40 39 39 39 39 39 39 39 39 39 40 40
29 30 32 33 34 34 34 34 34 34 34 34 35 35 36 36 37 37 37 37 37 37 37 37 37 37 38 38 39 39 39 40 39 40 40 41 40 40 39 39 39 39 39
29 30 31 32 33 34 35 35 35 35 36 36 36 36 37 38 37 37 37 37 36 36 36 37 38 39 39 39 39 39 39 39 39 40 40 41 40 40 39 39 40 40 39
28 29 30 31 31 32 33 33 34 34 36 37 37 38 38 39 39 39 38 38 37 37 37 37 38 38 38 38 38 38 38 39 39 39 39 40 40 40 40 40 40 41 41
28 28 29 29 29 30 31 32 32 33 33 34 35 36 37 38 38 38 39 39 38 38 38 38 38 38 38 38 38 37 37 38 39 40 39 39 40 40 41 41 41 41 42
27 27 27 28 29 29 30 31 32 31 32 33 33 33 34 35 36 37 38 38 38 38 38 39 39 39 39 39 38 38 37 37 38 39 39 39 40 40 42 42 42 42 42
Wind_Direction
229 229 229 230 231 231 233 236 237 239 240 240 240 240 240 239 239 240 242 244 246 247 247 248 248 248 250 254 259 266 269 271 273 277 281 284 287 289 290 290 293 295 297
230 230 231 231 233 234 234 237 239 241 243 244 243 243 243 243 244 245 246 247 249 249 250 251 252 251 252 256 261 265 268 270 274 278 280 282 284 286 288 290 292 294 296
231 232 233 233 233 235 236 238 241 242 244 245 245 245 245 246 247 248 248 249 249 250 251 254 256 256 257 260 263 265 267 269 272 277 279 280 282 284 287 290 292 294 295
231 232 234 235 235 236 237 239 242 244 245 246 246 247 247 248 249 250 251 252 250 251 253 255 257 260 260 262 264 265 267 270 274 276 279 280 280 282 286 289 291 293 294
232 232 234 235 236 237 239 240 243 245 246 247 247 248 249 249 251 252 253 253 253 254 257 257 258 260 262 263 265 266 268 271 274 276 278 280 282 284 286 288 290 292 293
232 231 233 235 236 237 238 241 243 245 246 246 248 249 249 250 252 253 254 254 254 256 258 259 258 260 261 263 265 267 269 270 273 275 276 278 280 283 285 287 289 291 292
232 232 232 234 236 238 240 241 242 244 246 247 247 249 250 252 253 254 255 256 256 257 258 259 259 260 261 263 264 267 269 272 274 275 276 277 278 280 283 285 287 289 291
231 232 233 234 235 238 240 240 242 243 245 246 247 249 251 253 254 254 256 257 258 259 259 260 260 260 261 262 265 267 270 272 274 275 275 276 278 280 282 284 286 287 288
231 231 232 234 235 238 240 241 242 244 245 247 248 250 252 254 255 255 256 257 258 259 259 260 261 261 261 262 265 267 269 271 272 273 275 276 278 279 281 283 285 286 287
231 231 231 233 235 237 240 242 244 245 247 249 251 252 254 254 255 256 257 258 258 259 259 260 261 261 262 263 265 268 270 271 272 273 274 275 277 279 281 282 283 285 285
232 232 232 234 236 239 242 244 245 246 247 250 252 254 254 256 256 256 257 258 259 259 259 260 260 261 262 263 265 267 269 270 271 272 273 274 277 279 281 282 282 283 284
233 234 235 236 238 241 244 245 246 247 247 249 252 254 254 256 257 257 258 258 259 259 260 260 260 261 261 262 264 266 267 269 270 270 272 274 276 278 279 281 282 283 283
233 235 236 237 241 244 246 246 246 247 248 249 251 253 254 256 257 258 259 260 260 260 261 261 261 261 261 261 263 265 266 267 268 270 271 273 275 277 278 279 281 282 282
234 237 238 239 243 245 246 245 247 247 249 250 251 253 254 255 256 257 259 261 261 261 261 261 261 261 261 261 262 264 265 265 267 268 270 272 273 275 276 278 280 281 282
236 238 240 241 244 246 246 247 247 248 249 251 252 254 255 255 256 257 259 260 261 262 263 262 262 262 261 261 262 263 265 266 266 266 268 270 271 273 274 276 278 281 282
239 241 242 242 246 246 246 247 248 249 250 251 253 254 255 257 258 258 259 260 261 262 263 264 263 263 262 262 262 263 264 266 267 266 267 268 270 272 272 274 277 280 282
240 240 242 243 245 245 246 248 250 251 252 253 254 254 255 256 258 259 259 260 261 262 262 263 264 263 262 262 262 263 263 264 265 266 266 267 268 271 273 274 278 280 282
240 241 243 245 248 250 247 248 251 251 253 253 254 254 254 256 258 259 260 260 260 262 262 263 263 263 262 262 263 263 263 264 265 265 265 266 268 270 272 274 278 280 282
241 243 244 247 250 252 251 251 251 252 252 254 254 255 255 256 256 259 260 260 261 262 263 264 263 263 263 263 263 263 263 263 264 264 265 266 267 268 271 273 276 278 280
242 244 246 249 251 254 254 253 252 253 253 254 255 256 257 257 257 257 258 260 261 262 263 264 263 262 263 263 263 263 263 263 264 265 266 267 268 270 271 273 276 278 280
245 247 249 252 254 256 256 255 255 255 256 256 257 257 258 258 259 259 260 261 261 262 264 263 263 263 263 263 264 265 264 264 264 265 265 266 268 270 271 273 276 278 279
248 250 252 255 256 257 257 257 257 257 258 258 259 259 259 260 261 261 261 262 261 263 265 265 264 264 266 265 264 265 266 265 264 265 266 267 268 270 271 274 277 278 279
251 253 255 257 258 258 259 260 259 259 261 261 262 262 262 263 263 262 262 262 263 264 265 265 265 266 267 266 265 266 267 265 264 264 265 266 267 269 271 274 277 278 278
252 254 256 257 259 259 259 261 261 261 262 262 263 263 264 264 264 263 263 264 265 266 266 266 265 265 265 265 265 265 267 266 264 264 265 265 266 268 271 274 275 276 278
252 254 256 258 259 260 260 261 263 263 263 264 265 265 265 264 264 265 265 264 265 266 266 267 266 264 265 264 263 264 267 267 266 266 264 265 267 269 271 273 275 277 278
251 254 257 258 258 259 261 262 263 263 264 265 266 267 266 265 265 265 266 266 266 267 267 268 267 265 264 264 262 263 266 266 265 266 265 266 269 271 272 273 275 276 278
Height
5858 5860 5862 5864 5866 5867 5868 5870 5871 5872 5873 5874 5874 5875 5876 5877 5877 5878 5878 5879 5879 5880 5880 5880 5880 5880 5880 5880 5880 5880 5880 5880 5880 5879 5879 5878 5878 5877 5877 5876 5875 5875 5874
5855 5857 5859 5861 5863 5864 5866 5867 5869 5870 5871 5872 5873 5873 5874 5875 5876 5876 5877 5877 5878 5878 5878 5879 5879 5879 5879 5879 5879 5879 5879 5879 5878 5878 5878 5877 5877 5876 5875 5875 5874 5873 5872
5851 5853 5855 5857 5860 5861 5863 5865 5866 5867 5869 5870 5871 5871 5872 5873 5874 5874 5875 5876 5876 5876 5877 5877 5877 5877 5877 5878 5877 5877 5877 5877 5877 5877 5876 5876 5875 5874 5874 5873 5872 5872 5871
5847 5849 5852 5854 5856 5858 5860 5861 5863 5865 5866 5867 5868 5869 5870 5871 5871 5872 5873 5873 5874 5874 5875 5875 5875 5875 5876 5876 5876 5875 5875 5875 5875 5875 5874 5874 5873 5873 5872 5871 5870 5870 5869
5842 5845 5847 5850 5852 5854 5856 5858 5859 5861 5863 5864 5865 5866 5867 5868 5869 5869 5870 5871 5871 5872 5872 5872 5873 5873 5873 5873 5873 5873 5873 5873 5873 5872 5872 5871 5871 5870 5870 5869 5868 5867 5866
5837 5840 5843 5846 5848 5850 5852 5854 5855 5857 5859 5860 5862 5863 5864 5865 5865 5866 5867 5868 5868 5869 5869 5870 5870 5870 5870 5870 5870 5870 5870 5870 5870 5870 5869 5869 5868 5868 5867 5866 5866 5865 5864
5832 5835 5838 5841 5843 5845 5847 5849 5851 5853 5855 5856 5858 5859 5860 5861 5862 5863 5863 5864 5865 5866 5866 5866 5866 5867 5867 5867 5867 5867 5867 5867 5867 5867 5866 5866 5865 5865 5864 5863 5863 5862 5861
5827 5830 5833 5836 5838 5841 5843 5845 5847 5849 5851 5852 5854 5855 5856 5857 5858 5859 5859 5860 5861 5862 5862 5862 5863 5863 5864 5864 5864 5864 5864 5864 5864 5863 5863 5863 5862 5862 5861 5860 5859 5858 5857
5821 5824 5827 5831 5834 5836 5838 5840 5842 5844 5846 5848 5849 5850 5852 5853 5853 5854 5855 5856 5857 5857 5858 5858 5859 5859 5860 5860 5860 5860 5860 5860 5860 5860 5859 5859 5858 5858 5857 5856 5855 5855 5854
5815 5819 5822 5825 5828 5830 5832 5835 5837 5839 5841 5843 5844 5846 5847 5848 5849 5850 5850 5851 5852 5852 5853 5854 5854 5855 5855 5855 5856 5856 5856 5856 5856 5855 5855 5854 5854 5853 5853 5852 5851 5850 5849
5810 5813 5816 5819 5822 5825 5827 5829 5831 5833 5835 5837 5839 5840 5841 5842 5843 5844 5845 5846 5846 5847 5848 5848 5849 5849 5850 5850 5851 5851 5851 5851 5851 5851 5850 5850 5849 5849 5848 5847 5846 5846 5845
5804 5807 5810 5813 5816 5819 5821 5823 5825 5827 5829 5831 5833 5834 5835 5837 5838 5838 5839 5840 5841 5841 5842 5842 5843 5844 5844 5845 5845 5845 5846 5846 5846 5846 5845 5845 5844 5844 5843 5842 5841 5840 5840
5798 5801 5804 5807 5810 5812 5814 5816 5818 5821 5823 5825 5826 5828 5829 5830 5831 5832 5833 5834 5834 5835 5835 5836 5836 5837 5838 5838 5839 5839 5840 5840 5840 5840 5840 5839 5839 5838 5838 5837 5836 5835 5834
5793 5796 5798 5801 5804 5806 5808 5809 5812 5814 5816 5818 5819 5821 5822 5823 5824 5825 5826 5827 5827 5828 5828 5829 5829 5830 5831 5831 5832 5833 5833 5833 5833 5834 5834 5834 5833 5833 5832 5831 5830 5830 5829
5787 5790 5792 5795 5798 5800 5801 5803 5805 5807 5809 5811 5812 5814 5815 5816 5817 5818 5819 5820 5820 5820 5821 5821 5822 5822 5823 5824 5825 5826 5826 5827 5827 5827 5827 5827 5827 5826 5826 5825 5824 5823 5823
5782 5785 5787 5789 5791 5792 5794 5796 5798 5800 5801 5803 5805 5806 5807 5809 5810 5811 5811 5812 5813 5813 5813 5814 5814 5815 5815 5816 5817 5818 5819 5820 5820 5820 5820 5820 5820 5820 5819 5819 5818 5817 5816
5777 5779 5781 5783 5785 5786 5788 5790 5791 5792 5794 5796 5797 5798 5799 5801 5802 5803 5803 5804 5805 5805 5806 5806 5807 5807 5808 5809 5810 5811 5811 5812 5812 5813 5813 5813 5813 5813 5812 5812 5811 5811 5810
5772 5774 5775 5777 5779 5780 5780 5782 5784 5785 5786 5788 5789 5790 5791 5792 5793 5794 5795 5796 5797 5797 5798 5798 5799 5799 5800 5801 5802 5803 5803 5804 5804 5805 5805 5805 5805 5805 5805 5805 5804 5803 5802
5766 5768 5769 5771 5773 5774 5774 5775 5776 5777 5779 5780 5781 5782 5783 5784 5785 5786 5787 5788 5788 5789 5790 5790 5791 5791 5792 5792 5793 5794 5795 5796 5796 5797 5797 5797 5798 5797 5797 5797 5796 5796 5795
5760 5762 5764 5765 5766 5767 5768 5769 5769 5770 5771 5772 5773 5774 5775 5776 5777 5778 5779 5779 5780 5781 5781 5781 5782 5782 5783 5784 5785 5785 5786 5787 5788 5788 5789 5789 5789 5789 5789 5789 5788 5787 5786
5755 5756 5758 5759 5759 5760 5761 5761 5762 5763 5764 5765 5765 5766 5767 5768 5768 5769 5770 5771 5771 5772 5772 5772 5773 5774 5774 5775 5776 5776 5777 5778 5779 5779 5780 5780 5781 5781 5780 5780 5779 5778 5777
5749 5750 5751 5752 5752 5753 5753 5754 5755 5756 5756 5757 5757 5758 5759 5759 5760 5760 5761 5762 5762 5763 5764 5764 5765 5765 5766 5766 5767 5767 5768 5769 5769 5770 5770 5771 5771 5771 5771 5771 5770 5769 5768
5743 5744 5745 5745 5745 5746 5746 5746 5746 5748 5748 5749 5749 5750 5750 5751 5751 5751 5752 5753 5754 5754 5755 5755 5756 5756 5757 5757 5758 5758 5759 5760 5760 5761 5761 5761 5762 5762 5762 5761 5761 5760 5759
5737 5738 5738 5738 5739 5739 5738 5738 5739 5740 5741 5741 5741 5742 5742 5742 5742 5743 5743 5744 5745 5745 5746 5746 5747 5747 5748 5748 5748 5749 5750 5750 5750 5752 5752 5752 5752 5753 5752 5752 5752 5751 5749
5730 5731 5731 5731 5732 5732 5731 5732 5732 5732 5733 5733 5733 5733 5733 5733 5734 5734 5734 5735 5736 5736 5737 5737 5737 5738 5738 5739 5739 5740 5740 5740 5740 5741 5743 5743 5743 5743 5743 5742 5742 5741 5739
5723 5724 5724 5724 5725 5725 5725 5725 5725 5725 5725 5725 5725 5725 5725 5725 5725 5725 5726 5726 5727 5727 5727 5728 5728 5728 5729 5730 5730 5731 5732 5732 5732 5732 5732 5733 5734 5734 5733 5732 5732 5730 5729